Time,TemperatureF,DewpointF,PressureIn,WindDirection,WindDirectionDegrees,WindSpeedMPH,WindSpeedGustMPH,Humidity,HourlyPrecipIn,Conditions,Clouds,dailyrainin,SoftwareType,DateUTC
2013-08-26 00:01:00,75.1,65.8,30.10,North,0,0.0,0.0,73,0.00,,,0.00,WUHU216HW,2013-08-26 05:01:00,
2013-08-26 00:06:00,74.9,65.6,30.10,North,0,0.0,0.0,73,0.00,,,0.00,WUHU216HW,2013-08-26 05:06:00,
2013-08-26 00:11:00,74.9,65.6,30.10,North,0,0.0,0.0,73,0.00,,,0.00,WUHU216HW,2013-08-26 05:11:00,
2013-08-26 00:16:00,74.9,66.1,30.09,North,0,0.0,0.0,74,0.00,,,0.00,WUHU216HW,2013-08-26 05:16:00,
2013-08-26 00:21:00,74.5,65.4,30.09,North,0,0.0,0.0,73,0.00,,,0.00,WUHU216HW,2013-08-26 05:21:00,
2013-08-26 00:26:00,74.5,65.4,30.09,North,0,0.0,0.0,73,0.00,,,0.00,WUHU216HW,2013-08-26 05:26:00,
2013-08-26 00:31:00,74.5,65.7,30.09,North,0,0.0,0.0,74,0.00,,,0.00,WUHU216HW,2013-08-26 05:31:00,
2013-08-26 00:36:00,74.5,65.7,30.09,North,0,0.0,0.0,74,0.00,,,0.00,WUHU216HW,2013-08-26 05:36:00,
2013-08-26 00:41:00,74.7,65.9,30.09,North,0,0.0,0.0,74,0.00,,,0.00,WUHU216HW,2013-08-26 05:41:00,
2013-08-26 00:46:00,74.9,66.1,30.09,North,0,0.0,0.0,74,0.00,,,0.00,WUHU216HW,2013-08-26 05:46:00,
2013-08-26 00:51:00,74.7,65.9,30.09,North,0,0.0,0.0,74,0.00,,,0.00,WUHU216HW,2013-08-26 05:51:00,
2013-08-26 00:56:00,74.5,65.7,30.09,North,0,0.0,0.0,74,0.00,,,0.00,WUHU216HW,2013-08-26 05:56:00,
2013-08-26 01:01:00,74.5,66.1,30.09,North,0,0.0,0.0,75,0.00,,,0.00,WUHU216HW,2013-08-26 06:01:00,
2013-08-26 01:06:00,74.5,66.1,30.08,North,0,0.0,0.0,75,0.00,,,0.00,WUHU216HW,2013-08-26 06:06:00,
2013-08-26 01:11:00,74.5,66.1,30.08,North,0,0.0,0.0,75,0.00,,,0.00,WUHU216HW,2013-08-26 06:11:00,
2013-08-26 01:16:00,74.5,66.1,30.09,North,0,0.0,0.0,75,0.00,,,0.00,WUHU216HW,2013-08-26 06:16:00,
2013-08-26 01:21:00,74.5,66.1,30.09,North,0,0.0,0.0,75,0.00,,,0.00,WUHU216HW,2013-08-26 06:21:00,
2013-08-26 01:26:00,74.5,66.1,30.09,North,0,0.0,0.0,75,0.00,,,0.00,WUHU216HW,2013-08-26 06:26:00,
2013-08-26 01:31:00,74.5,66.1,30.09,North,0,0.0,0.0,75,0.00,,,0.00,WUHU216HW,2013-08-26 06:31:00,
2013-08-26 01:36:00,74.5,66.1,30.09,North,0,0.0,0.0,75,0.00,,,0.00,WUHU216HW,2013-08-26 06:36:00,
2013-08-26 01:41:00,74.5,66.1,30.09,North,0,0.0,0.0,75,0.00,,,0.00,WUHU216HW,2013-08-26 06:41:00,
2013-08-26 01:46:00,74.3,65.9,30.09,North,0,0.0,0.0,75,0.00,,,0.00,WUHU216HW,2013-08-26 06:46:00,
2013-08-26 01:51:00,74.5,66.1,30.09,North,0,0.0,0.0,75,0.00,,,0.00,WUHU216HW,2013-08-26 06:51:00,
2013-08-26 01:56:00,74.3,65.5,30.09,North,0,0.0,0.0,74,0.00,,,0.00,WUHU216HW,2013-08-26 06:56:00,
2013-08-26 02:01:00,74.3,65.9,30.09,North,0,0.0,0.0,75,0.00,,,0.00,WUHU216HW,2013-08-26 07:01:00,
2013-08-26 02:06:00,74.3,65.9,30.09,North,0,0.0,0.0,75,0.00,,,0.00,WUHU216HW,2013-08-26 07:06:00,
2013-08-26 02:11:00,74.2,65.8,30.09,North,0,0.0,0.0,75,0.00,,,0.00,WUHU216HW,2013-08-26 07:11:00,
2013-08-26 02:16:00,74.0,65.6,30.09,North,0,0.0,0.0,75,0.00,,,0.00,WUHU216HW,2013-08-26 07:16:00,
2013-08-26 02:21:00,73.8,65.4,30.09,North,0,0.0,0.0,75,0.00,,,0.00,WUHU216HW,2013-08-26 07:21:00,
2013-08-26 02:26:00,73.6,65.3,30.09,North,0,0.0,0.0,75,0.00,,,0.00,WUHU216HW,2013-08-26 07:26:00,
2013-08-26 02:30:00,73.6,65.3,30.09,North,0,0.0,0.0,75,0.00,,,0.00,WUHU216HW,2013-08-26 07:30:00,
2013-08-26 02:35:00,73.4,65.1,30.09,North,0,0.0,0.0,75,0.00,,,0.00,WUHU216HW,2013-08-26 07:35:00,
2013-08-26 02:40:00,73.4,65.4,30.09,North,0,0.0,0.0,76,0.00,,,0.00,WUHU216HW,2013-08-26 07:40:00,
2013-08-26 02:45:00,73.4,65.4,30.09,North,0,0.0,0.0,76,0.00,,,0.00,WUHU216HW,2013-08-26 07:45:00,
2013-08-26 02:50:00,73.1,65.1,30.09,North,0,0.0,0.0,76,0.00,,,0.00,WUHU216HW,2013-08-26 07:50:00,
2013-08-26 02:55:00,73.1,65.1,30.09,North,0,0.0,0.0,76,0.00,,,0.00,WUHU216HW,2013-08-26 07:55:00,
2013-08-26 03:00:00,72.9,64.9,30.08,North,0,0.0,0.0,76,0.00,,,0.00,WUHU216HW,2013-08-26 08:00:00,
2013-08-26 03:05:00,72.9,65.3,30.08,North,0,0.0,0.0,77,0.00,,,0.00,WUHU216HW,2013-08-26 08:05:00,
2013-08-26 03:10:00,72.9,64.9,30.08,North,0,0.0,0.0,76,0.00,,,0.00,WUHU216HW,2013-08-26 08:10:00,
2013-08-26 03:15:00,73.1,65.1,30.08,North,0,0.0,0.0,76,0.00,,,0.00,WUHU216HW,2013-08-26 08:15:00,
2013-08-26 03:20:00,72.9,64.9,30.07,North,0,0.0,0.0,76,0.00,,,0.00,WUHU216HW,2013-08-26 08:20:00,
2013-08-26 03:25:00,72.7,65.1,30.07,North,0,0.0,0.0,77,0.00,,,0.00,WUHU216HW,2013-08-26 08:25:00,
2013-08-26 03:30:00,72.7,65.1,30.07,North,0,0.0,0.0,77,0.00,,,0.00,WUHU216HW,2013-08-26 08:30:00,
2013-08-26 03:35:00,72.5,64.9,30.08,North,0,0.0,0.0,77,0.00,,,0.00,WUHU216HW,2013-08-26 08:35:00,
2013-08-26 03:40:00,72.5,64.9,30.07,North,0,0.0,0.0,77,0.00,,,0.00,WUHU216HW,2013-08-26 08:40:00,
2013-08-26 03:45:00,72.5,64.9,30.08,North,0,0.0,0.0,77,0.00,,,0.00,WUHU216HW,2013-08-26 08:45:00,
2013-08-26 03:50:00,72.5,64.9,30.08,North,0,0.0,0.0,77,0.00,,,0.00,WUHU216HW,2013-08-26 08:50:00,
2013-08-26 03:55:00,72.5,64.9,30.07,North,0,0.0,0.0,77,0.00,,,0.00,WUHU216HW,2013-08-26 08:55:00,
2013-08-26 04:00:00,72.5,64.9,30.08,North,0,0.0,0.0,77,0.00,,,0.00,WUHU216HW,2013-08-26 09:00:00,
2013-08-26 04:05:00,72.4,64.7,30.08,North,0,0.0,0.0,77,0.00,,,0.00,WUHU216HW,2013-08-26 09:05:00,
2013-08-26 04:10:00,72.4,64.7,30.08,North,0,0.0,0.0,77,0.00,,,0.00,WUHU216HW,2013-08-26 09:10:00,
2013-08-26 04:15:00,72.4,64.7,30.08,North,0,0.0,0.0,77,0.00,,,0.00,WUHU216HW,2013-08-26 09:15:00,
2013-08-26 04:20:00,72.4,64.7,30.08,North,0,0.0,0.0,77,0.00,,,0.00,WUHU216HW,2013-08-26 09:20:00,
2013-08-26 04:25:00,72.4,64.7,30.08,North,0,0.0,0.0,77,0.00,,,0.00,WUHU216HW,2013-08-26 09:25:00,
2013-08-26 04:30:00,72.4,64.7,30.08,North,0,0.0,0.0,77,0.00,,,0.00,WUHU216HW,2013-08-26 09:30:00,
2013-08-26 04:35:00,72.4,64.7,30.08,North,0,0.0,0.0,77,0.00,,,0.00,WUHU216HW,2013-08-26 09:35:00,
2013-08-26 04:40:00,72.4,64.7,30.08,North,0,0.0,0.0,77,0.00,,,0.00,WUHU216HW,2013-08-26 09:40:00,
2013-08-26 04:45:00,72.2,64.2,30.08,North,0,0.0,0.0,76,0.00,,,0.00,WUHU216HW,2013-08-26 09:45:00,
2013-08-26 04:50:00,72.2,64.2,30.08,North,0,0.0,0.0,76,0.00,,,0.00,WUHU216HW,2013-08-26 09:50:00,
2013-08-26 04:55:00,72.2,63.8,30.08,North,0,0.0,0.0,75,0.00,,,0.00,WUHU216HW,2013-08-26 09:55:00,
2013-08-26 05:00:00,72.0,64.0,30.08,North,0,0.0,0.0,76,0.00,,,0.00,WUHU216HW,2013-08-26 10:00:00,
2013-08-26 05:05:00,72.2,63.8,30.09,North,0,0.0,0.0,75,0.00,,,0.00,WUHU216HW,2013-08-26 10:05:00,
2013-08-26 05:10:00,72.2,63.8,30.08,North,0,0.0,0.0,75,0.00,,,0.00,WUHU216HW,2013-08-26 10:10:00,
2013-08-26 05:15:00,72.2,63.8,30.08,North,0,0.0,0.0,75,0.00,,,0.00,WUHU216HW,2013-08-26 10:15:00,
2013-08-26 05:20:00,72.2,63.8,30.08,North,0,0.0,0.0,75,0.00,,,0.00,WUHU216HW,2013-08-26 10:20:00,
2013-08-26 05:25:00,72.2,63.8,30.08,North,0,0.0,0.0,75,0.00,,,0.00,WUHU216HW,2013-08-26 10:25:00,
2013-08-26 05:30:00,72.2,63.8,30.08,North,0,0.0,0.0,75,0.00,,,0.00,WUHU216HW,2013-08-26 10:30:00,
2013-08-26 05:35:00,72.2,63.8,30.09,North,0,0.0,0.0,75,0.00,,,0.00,WUHU216HW,2013-08-26 10:35:00,
2013-08-26 05:40:00,72.4,64.4,30.08,North,0,0.0,0.0,76,0.00,,,0.00,WUHU216HW,2013-08-26 10:40:00,
2013-08-26 05:45:00,72.5,64.2,30.08,North,0,0.0,0.0,75,0.00,,,0.00,WUHU216HW,2013-08-26 10:45:00,
2013-08-26 05:50:00,72.5,64.2,30.08,North,0,0.0,0.0,75,0.00,,,0.00,WUHU216HW,2013-08-26 10:50:00,
2013-08-26 05:55:00,72.4,64.0,30.08,North,0,0.0,0.0,75,0.00,,,0.00,WUHU216HW,2013-08-26 10:55:00,
2013-08-26 06:00:00,72.2,63.5,30.08,North,0,0.0,0.0,74,0.00,,,0.00,WUHU216HW,2013-08-26 11:00:00,
2013-08-26 06:05:00,72.2,63.8,30.09,North,0,0.0,0.0,75,0.00,,,0.00,WUHU216HW,2013-08-26 11:05:00,
2013-08-26 06:10:00,72.4,64.4,30.09,North,0,0.0,0.0,76,0.00,,,0.00,WUHU216HW,2013-08-26 11:10:00,
2013-08-26 06:15:00,72.2,63.8,30.09,North,0,0.0,0.0,75,0.00,,,0.00,WUHU216HW,2013-08-26 11:15:00,
2013-08-26 06:20:00,72.2,63.8,30.10,North,0,0.0,0.0,75,0.00,,,0.00,WUHU216HW,2013-08-26 11:20:00,
2013-08-26 06:25:00,72.2,63.8,30.10,North,0,0.0,0.0,75,0.00,,,0.00,WUHU216HW,2013-08-26 11:25:00,
2013-08-26 06:30:00,72.2,63.8,30.10,North,0,0.0,0.0,75,0.00,,,0.00,WUHU216HW,2013-08-26 11:30:00,
2013-08-26 06:35:00,72.0,64.0,30.11,North,0,0.0,0.0,76,0.00,,,0.00,WUHU216HW,2013-08-26 11:35:00,
2013-08-26 06:40:00,72.2,64.2,30.10,North,0,0.0,0.0,76,0.00,,,0.00,WUHU216HW,2013-08-26 11:40:00,
2013-08-26 06:45:00,72.4,64.7,30.10,North,0,0.0,0.0,77,0.00,,,0.00,WUHU216HW,2013-08-26 11:45:00,
2013-08-26 06:50:00,72.4,64.7,30.11,North,0,0.0,0.0,77,0.00,,,0.00,WUHU216HW,2013-08-26 11:50:00,
2013-08-26 06:55:00,72.5,64.5,30.11,North,0,0.0,0.0,76,0.00,,,0.00,WUHU216HW,2013-08-26 11:55:00,
2013-08-26 07:00:00,72.7,64.7,30.10,North,0,0.0,0.0,76,0.00,,,0.00,WUHU216HW,2013-08-26 12:00:00,
2013-08-26 07:05:00,72.9,64.9,30.11,North,0,0.0,0.0,76,0.00,,,0.00,WUHU216HW,2013-08-26 12:05:00,
2013-08-26 07:10:00,72.9,64.9,30.10,North,0,0.0,0.0,76,0.00,,,0.00,WUHU216HW,2013-08-26 12:10:00,
2013-08-26 07:15:00,73.1,65.1,30.10,North,0,0.0,0.0,76,0.00,,,0.00,WUHU216HW,2013-08-26 12:15:00,
2013-08-26 07:20:00,73.1,64.7,30.10,North,0,0.0,0.0,75,0.00,,,0.00,WUHU216HW,2013-08-26 12:20:00,
2013-08-26 07:25:00,73.3,64.9,30.10,North,0,0.0,0.0,75,0.00,,,0.00,WUHU216HW,2013-08-26 12:25:00,
2013-08-26 07:30:00,73.4,65.1,30.09,North,0,0.0,0.0,75,0.00,,,0.00,WUHU216HW,2013-08-26 12:30:00,
2013-08-26 07:35:00,73.6,65.3,30.10,North,0,0.0,0.0,75,0.00,,,0.00,WUHU216HW,2013-08-26 12:35:00,
2013-08-26 07:40:00,73.8,65.4,30.09,North,0,0.0,0.0,75,0.00,,,0.00,WUHU216HW,2013-08-26 12:40:00,
2013-08-26 07:45:00,74.2,65.3,30.09,North,0,0.0,0.0,74,0.00,,,0.00,WUHU216HW,2013-08-26 12:45:00,
2013-08-26 07:50:00,74.5,65.7,30.09,North,0,0.0,0.0,74,0.00,,,0.00,WUHU216HW,2013-08-26 12:50:00,
2013-08-26 07:55:00,74.5,65.4,30.10,North,0,0.0,0.0,73,0.00,,,0.00,WUHU216HW,2013-08-26 12:55:00,
2013-08-26 08:00:00,74.9,65.6,30.10,North,0,0.0,0.0,73,0.00,,,0.00,WUHU216HW,2013-08-26 13:00:00,
2013-08-26 08:05:00,74.9,65.6,30.10,North,0,0.0,0.0,73,0.00,,,0.00,WUHU216HW,2013-08-26 13:05:00,
2013-08-26 08:10:00,75.2,66.0,30.10,North,0,0.0,0.0,73,0.00,,,0.00,WUHU216HW,2013-08-26 13:10:00,
2013-08-26 08:15:00,75.4,66.2,30.10,North,0,0.0,0.0,73,0.00,,,0.00,WUHU216HW,2013-08-26 13:15:00,
2013-08-26 08:20:00,75.8,66.2,30.10,North,0,0.0,0.0,72,0.00,,,0.00,WUHU216HW,2013-08-26 13:20:00,
2013-08-26 08:25:00,76.0,66.3,30.10,North,0,0.0,0.0,72,0.00,,,0.00,WUHU216HW,2013-08-26 13:25:00,
2013-08-26 08:30:00,76.0,66.3,30.10,North,0,0.0,0.0,72,0.00,,,0.00,WUHU216HW,2013-08-26 13:30:00,
2013-08-26 08:35:00,76.1,66.1,30.10,North,0,0.0,0.0,71,0.00,,,0.00,WUHU216HW,2013-08-26 13:35:00,
2013-08-26 08:40:00,76.5,66.4,30.10,North,0,0.0,0.0,71,0.00,,,0.00,WUHU216HW,2013-08-26 13:40:00,
2013-08-26 08:45:00,76.7,66.6,30.10,North,0,0.0,0.0,71,0.00,,,0.00,WUHU216HW,2013-08-26 13:45:00,
2013-08-26 08:50:00,77.0,67.0,30.10,North,0,0.0,0.0,71,0.00,,,0.00,WUHU216HW,2013-08-26 13:50:00,
2013-08-26 08:55:00,77.4,67.3,30.10,North,0,0.0,0.0,71,0.00,,,0.00,WUHU216HW,2013-08-26 13:55:00,
2013-08-26 09:00:00,77.6,67.1,30.10,North,0,0.0,0.0,70,0.00,,,0.00,WUHU216HW,2013-08-26 14:00:00,
2013-08-26 09:05:00,77.6,67.1,30.10,North,0,0.0,0.0,70,0.00,,,0.00,WUHU216HW,2013-08-26 14:05:00,
2013-08-26 09:10:00,77.8,67.2,30.10,North,0,0.0,0.0,70,0.00,,,0.00,WUHU216HW,2013-08-26 14:10:00,
2013-08-26 09:15:00,78.5,67.9,30.10,North,0,0.0,0.0,70,0.00,,,0.00,WUHU216HW,2013-08-26 14:15:00,
2013-08-26 09:20:00,78.7,68.0,30.10,North,0,0.0,0.0,70,0.00,,,0.00,WUHU216HW,2013-08-26 14:20:00,
2013-08-26 09:25:00,79.0,68.4,30.10,North,0,0.0,0.0,70,0.00,,,0.00,WUHU216HW,2013-08-26 14:25:00,
2013-08-26 09:30:00,79.4,68.3,30.10,North,0,0.0,0.0,69,0.00,,,0.00,WUHU216HW,2013-08-26 14:30:00,
2013-08-26 09:35:00,79.6,68.5,30.11,North,0,0.0,0.0,69,0.00,,,0.00,WUHU216HW,2013-08-26 14:35:00,
2013-08-26 09:40:00,79.6,68.5,30.12,North,0,0.0,0.0,69,0.00,,,0.00,WUHU216HW,2013-08-26 14:40:00,
2013-08-26 09:45:00,79.2,68.6,30.13,North,0,0.0,0.0,70,0.00,,,0.00,WUHU216HW,2013-08-26 14:45:00,
2013-08-26 09:50:00,79.2,68.9,30.13,North,0,0.0,0.0,71,0.00,,,0.00,WUHU216HW,2013-08-26 14:50:00,
2013-08-26 09:55:00,79.6,69.3,30.13,North,0,0.0,0.0,71,0.00,,,0.00,WUHU216HW,2013-08-26 14:55:00,
2013-08-26 10:00:00,80.1,69.0,30.12,North,0,0.0,0.0,69,0.00,,,0.00,WUHU216HW,2013-08-26 15:00:00,
2013-08-26 10:05:00,80.3,69.2,30.13,North,0,0.0,0.0,69,0.00,,,0.00,WUHU216HW,2013-08-26 15:05:00,
2013-08-26 10:10:00,80.5,69.4,30.13,North,0,0.0,0.0,69,0.00,,,0.00,WUHU216HW,2013-08-26 15:10:00,
2013-08-26 10:15:00,80.6,69.1,30.13,North,0,0.0,0.0,68,0.00,,,0.00,WUHU216HW,2013-08-26 15:15:00,
2013-08-26 10:20:00,80.3,68.8,30.12,North,0,0.0,0.0,68,0.00,,,0.00,WUHU216HW,2013-08-26 15:20:00,
2013-08-26 10:25:00,80.3,69.2,30.12,North,0,0.0,0.0,69,0.00,,,0.00,WUHU216HW,2013-08-26 15:25:00,
2013-08-26 10:30:00,80.8,70.2,30.12,North,0,0.0,0.0,70,0.00,,,0.00,WUHU216HW,2013-08-26 15:30:00,
2013-08-26 10:35:00,81.5,69.9,30.12,North,0,0.0,0.0,68,0.00,,,0.00,WUHU216HW,2013-08-26 15:35:00,
2013-08-26 10:40:00,81.9,69.4,30.12,North,0,0.0,0.0,66,0.00,,,0.00,WUHU216HW,2013-08-26 15:40:00,
2013-08-26 10:45:00,82.4,70.7,30.12,North,0,0.0,0.0,68,0.00,,,0.00,WUHU216HW,2013-08-26 15:45:00,
2013-08-26 10:50:00,82.3,69.7,30.12,North,0,0.0,0.0,66,0.00,,,0.00,WUHU216HW,2013-08-26 15:50:00,
2013-08-26 10:55:00,82.8,70.7,30.12,North,0,0.0,0.0,67,0.00,,,0.00,WUHU216HW,2013-08-26 15:55:00,
2013-08-26 11:00:00,83.2,71.0,30.13,North,0,0.0,0.0,67,0.00,,,0.00,WUHU216HW,2013-08-26 16:00:00,
2013-08-26 11:05:00,82.8,70.7,30.12,North,0,0.0,0.0,67,0.00,,,0.00,WUHU216HW,2013-08-26 16:05:00,
2013-08-26 11:10:00,82.8,70.7,30.13,North,0,0.0,0.0,67,0.00,,,0.00,WUHU216HW,2013-08-26 16:10:00,
2013-08-26 11:15:00,82.8,70.7,30.12,North,0,0.0,0.0,67,0.00,,,0.00,WUHU216HW,2013-08-26 16:15:00,
2013-08-26 11:20:00,82.6,70.5,30.12,North,0,0.0,0.0,67,0.00,,,0.00,WUHU216HW,2013-08-26 16:20:00,
2013-08-26 11:25:00,83.2,71.0,30.12,North,0,0.0,0.0,67,0.00,,,0.00,WUHU216HW,2013-08-26 16:25:00,
2013-08-26 11:30:00,83.5,70.9,30.11,North,0,0.0,0.0,66,0.00,,,0.00,WUHU216HW,2013-08-26 16:30:00,
2013-08-26 11:35:00,83.9,71.3,30.11,North,0,0.0,0.0,66,0.00,,,0.00,WUHU216HW,2013-08-26 16:35:00,
2013-08-26 11:40:00,85.0,72.4,30.11,North,0,0.0,0.0,66,0.00,,,0.00,WUHU216HW,2013-08-26 16:40:00,
2013-08-26 11:45:00,85.7,72.1,30.10,North,0,0.0,0.0,64,0.00,,,0.00,WUHU216HW,2013-08-26 16:45:00,
2013-08-26 11:50:00,86.4,71.8,30.10,North,0,0.0,0.0,62,0.00,,,0.00,WUHU216HW,2013-08-26 16:50:00,
2013-08-26 11:55:00,86.8,72.2,30.09,North,0,0.0,0.0,62,0.00,,,0.00,WUHU216HW,2013-08-26 16:55:00,
2013-08-26 12:00:00,87.8,72.8,30.09,North,0,0.0,0.0,61,0.00,,,0.00,WUHU216HW,2013-08-26 17:00:00,
2013-08-26 12:05:00,88.7,72.6,30.09,North,0,0.0,0.0,59,0.00,,,0.00,WUHU216HW,2013-08-26 17:05:00,
2013-08-26 12:10:00,89.3,73.1,30.09,North,0,0.0,0.0,59,0.00,,,0.00,WUHU216HW,2013-08-26 17:10:00,
2013-08-26 12:15:00,89.3,72.5,30.09,North,0,0.0,0.0,58,0.00,,,0.00,WUHU216HW,2013-08-26 17:15:00,
2013-08-26 12:20:00,88.9,72.3,30.09,North,0,0.0,0.0,58,0.00,,,0.00,WUHU216HW,2013-08-26 17:20:00,
2013-08-26 12:25:00,89.1,72.5,30.09,North,0,0.0,0.0,58,0.00,,,0.00,WUHU216HW,2013-08-26 17:25:00,
2013-08-26 12:30:00,89.5,72.7,30.08,North,0,0.0,0.0,58,0.00,,,0.00,WUHU216HW,2013-08-26 17:30:00,
2013-08-26 12:35:00,90.4,73.5,30.07,North,0,0.0,0.0,58,0.00,,,0.00,WUHU216HW,2013-08-26 17:35:00,
2013-08-26 12:40:00,90.9,73.0,30.07,North,0,0.0,0.0,56,0.00,,,0.00,WUHU216HW,2013-08-26 17:40:00,
2013-08-26 12:45:00,91.1,73.1,30.07,North,0,0.0,0.0,56,0.00,,,0.00,WUHU216HW,2013-08-26 17:45:00,
2013-08-26 12:50:00,91.3,73.3,30.07,North,0,0.0,0.0,56,0.00,,,0.00,WUHU216HW,2013-08-26 17:50:00,
2013-08-26 12:55:00,91.3,72.7,30.07,North,0,0.0,0.0,55,0.00,,,0.00,WUHU216HW,2013-08-26 17:55:00,
2013-08-26 13:00:00,90.7,72.3,30.07,North,0,0.0,0.0,55,0.00,,,0.00,WUHU216HW,2013-08-26 18:00:00,
2013-08-26 13:05:00,91.1,72.0,30.06,North,0,0.0,0.0,54,0.00,,,0.00,WUHU216HW,2013-08-26 18:05:00,
2013-08-26 13:10:00,90.7,72.3,30.06,North,0,0.0,0.0,55,0.00,,,0.00,WUHU216HW,2013-08-26 18:10:00,
2013-08-26 13:15:00,91.6,72.6,30.06,North,0,0.0,0.0,54,0.00,,,0.00,WUHU216HW,2013-08-26 18:15:00,
2013-08-26 13:20:00,91.6,72.6,30.05,North,0,0.0,0.0,54,0.00,,,0.00,WUHU216HW,2013-08-26 18:20:00,
2013-08-26 13:25:00,92.0,72.9,30.05,North,0,0.0,0.0,54,0.00,,,0.00,WUHU216HW,2013-08-26 18:25:00,
2013-08-26 13:30:00,92.0,72.4,30.04,North,0,0.0,0.0,53,0.00,,,0.00,WUHU216HW,2013-08-26 18:30:00,
2013-08-26 13:35:00,91.8,72.7,30.04,North,0,0.0,0.0,54,0.00,,,0.00,WUHU216HW,2013-08-26 18:35:00,
2013-08-26 13:40:00,91.8,72.2,30.04,North,0,0.0,0.0,53,0.00,,,0.00,WUHU216HW,2013-08-26 18:40:00,
2013-08-26 13:45:00,92.3,72.6,30.04,North,0,0.0,0.0,53,0.00,,,0.00,WUHU216HW,2013-08-26 18:45:00,
2013-08-26 13:50:00,92.7,73.5,30.04,North,0,0.0,0.0,54,0.00,,,0.00,WUHU216HW,2013-08-26 18:50:00,
2013-08-26 13:55:00,93.8,72.9,30.04,North,0,0.0,0.0,51,0.00,,,0.00,WUHU216HW,2013-08-26 18:55:00,
2013-08-26 14:00:00,93.2,73.5,30.04,North,0,0.0,0.0,53,0.00,,,0.00,WUHU216HW,2013-08-26 19:00:00,
2013-08-26 14:05:00,93.6,73.3,30.03,North,0,0.0,0.0,52,0.00,,,0.00,WUHU216HW,2013-08-26 19:05:00,
2013-08-26 14:10:00,93.8,72.9,30.03,North,0,0.0,0.0,51,0.00,,,0.00,WUHU216HW,2013-08-26 19:10:00,
2013-08-26 14:15:00,93.4,73.1,30.03,North,0,0.0,0.0,52,0.00,,,0.00,WUHU216HW,2013-08-26 19:15:00,
2013-08-26 14:20:00,93.4,73.7,30.03,North,0,0.0,0.0,53,0.00,,,0.00,WUHU216HW,2013-08-26 19:20:00,
2013-08-26 14:25:00,93.6,74.4,30.03,North,0,0.0,0.0,54,0.00,,,0.00,WUHU216HW,2013-08-26 19:25:00,
2013-08-26 14:30:00,93.6,74.4,30.02,North,0,0.0,0.0,54,0.00,,,0.00,WUHU216HW,2013-08-26 19:30:00,
2013-08-26 14:35:00,93.6,74.4,30.02,North,0,0.0,0.0,54,0.00,,,0.00,WUHU216HW,2013-08-26 19:35:00,
2013-08-26 14:40:00,93.8,74.6,30.02,North,0,0.0,0.0,54,0.00,,,0.00,WUHU216HW,2013-08-26 19:40:00,
2013-08-26 14:45:00,95.0,74.7,30.02,North,0,0.0,0.0,52,0.00,,,0.00,WUHU216HW,2013-08-26 19:45:00,
2013-08-26 14:50:00,95.2,74.9,30.02,North,0,0.0,0.0,52,0.00,,,0.00,WUHU216HW,2013-08-26 19:50:00,
2013-08-26 14:55:00,95.4,75.1,30.01,North,0,0.0,0.0,52,0.00,,,0.00,WUHU216HW,2013-08-26 19:55:00,
2013-08-26 15:00:00,94.7,74.9,30.01,North,0,0.0,0.0,53,0.00,,,0.00,WUHU216HW,2013-08-26 20:00:00,
2013-08-26 15:05:00,94.5,74.2,30.01,North,0,0.0,0.0,52,0.00,,,0.00,WUHU216HW,2013-08-26 20:05:00,
2013-08-26 15:10:00,94.9,75.1,30.00,North,0,0.0,0.0,53,0.00,,,0.00,WUHU216HW,2013-08-26 20:10:00,
2013-08-26 15:15:00,95.8,74.8,30.00,North,0,0.0,0.0,51,0.00,,,0.00,WUHU216HW,2013-08-26 20:15:00,
2013-08-26 15:20:00,96.3,74.8,30.00,North,0,0.0,0.0,50,0.00,,,0.00,WUHU216HW,2013-08-26 20:20:00,
2013-08-26 15:25:00,96.8,75.2,30.00,North,0,0.0,0.0,50,0.00,,,0.00,WUHU216HW,2013-08-26 20:25:00,
2013-08-26 15:30:00,95.8,74.3,30.00,North,0,0.0,0.0,50,0.00,,,0.00,WUHU216HW,2013-08-26 20:30:00,
2013-08-26 15:35:00,96.5,74.3,30.00,North,0,0.0,0.0,49,0.00,,,0.00,WUHU216HW,2013-08-26 20:35:00,
2013-08-26 15:40:00,95.4,74.5,29.99,North,0,0.0,0.0,51,0.00,,,0.00,WUHU216HW,2013-08-26 20:40:00,
2013-08-26 15:45:00,95.2,73.8,29.99,North,0,0.0,0.0,50,0.00,,,0.00,WUHU216HW,2013-08-26 20:45:00,
2013-08-26 15:50:00,95.9,74.4,29.99,North,0,0.0,0.0,50,0.00,,,0.00,WUHU216HW,2013-08-26 20:50:00,
2013-08-26 15:55:00,96.7,75.1,29.99,North,0,0.0,0.0,50,0.00,,,0.00,WUHU216HW,2013-08-26 20:55:00,
2013-08-26 16:00:00,97.9,74.9,29.99,North,0,0.0,0.0,48,0.00,,,0.00,WUHU216HW,2013-08-26 21:00:00,
2013-08-26 16:05:00,97.0,74.1,29.99,North,0,0.0,0.0,48,0.00,,,0.00,WUHU216HW,2013-08-26 21:05:00,
2013-08-26 16:10:00,97.2,74.9,29.99,North,0,0.0,0.0,49,0.00,,,0.00,WUHU216HW,2013-08-26 21:10:00,
2013-08-26 16:15:00,97.6,74.5,29.99,North,0,0.0,0.0,48,0.00,,,0.00,WUHU216HW,2013-08-26 21:15:00,
2013-08-26 16:20:00,97.0,74.7,29.99,North,0,0.0,0.0,49,0.00,,,0.00,WUHU216HW,2013-08-26 21:20:00,
2013-08-26 16:25:00,96.7,74.4,29.99,North,0,0.0,0.0,49,0.00,,,0.00,WUHU216HW,2013-08-26 21:25:00,
2013-08-26 16:30:00,95.9,73.1,29.99,North,0,0.0,0.0,48,0.00,,,0.00,WUHU216HW,2013-08-26 21:30:00,
2013-08-26 16:35:00,96.1,73.9,29.99,North,0,0.0,0.0,49,0.00,,,0.00,WUHU216HW,2013-08-26 21:35:00,
2013-08-26 16:40:00,96.7,73.7,29.98,North,0,0.0,0.0,48,0.00,,,0.00,WUHU216HW,2013-08-26 21:40:00,
2013-08-26 16:45:00,96.5,73.6,29.99,North,0,0.0,0.0,48,0.00,,,0.00,WUHU216HW,2013-08-26 21:45:00,
2013-08-26 16:50:00,96.3,74.1,29.98,North,0,0.0,0.0,49,0.00,,,0.00,WUHU216HW,2013-08-26 21:50:00,
2013-08-26 16:55:00,96.1,74.6,29.99,North,0,0.0,0.0,50,0.00,,,0.00,WUHU216HW,2013-08-26 21:55:00,
2013-08-26 17:00:00,95.4,74.5,29.99,North,0,0.0,0.0,51,0.00,,,0.00,WUHU216HW,2013-08-26 22:00:00,
2013-08-26 17:05:00,95.9,75.0,29.99,North,0,0.0,0.0,51,0.00,,,0.00,WUHU216HW,2013-08-26 22:05:00,
2013-08-26 17:10:00,96.1,74.6,29.99,North,0,0.0,0.0,50,0.00,,,0.00,WUHU216HW,2013-08-26 22:10:00,
2013-08-26 17:15:00,96.1,73.9,29.98,North,0,0.0,0.0,49,0.00,,,0.00,WUHU216HW,2013-08-26 22:15:00,
2013-08-26 17:20:00,95.8,74.3,29.98,North,0,0.0,0.0,50,0.00,,,0.00,WUHU216HW,2013-08-26 22:20:00,
2013-08-26 17:25:00,96.1,75.2,29.98,North,0,0.0,0.0,51,0.00,,,0.00,WUHU216HW,2013-08-26 22:25:00,
2013-08-26 17:30:00,95.8,74.8,29.98,North,0,0.0,0.0,51,0.00,,,0.00,WUHU216HW,2013-08-26 22:30:00,
2013-08-26 17:35:00,95.8,74.8,29.98,North,0,0.0,0.0,51,0.00,,,0.00,WUHU216HW,2013-08-26 22:35:00,
2013-08-26 17:40:00,96.1,75.2,29.98,North,0,0.0,0.0,51,0.00,,,0.00,WUHU216HW,2013-08-26 22:40:00,
2013-08-26 17:45:00,95.9,74.4,29.98,North,0,0.0,0.0,50,0.00,,,0.00,WUHU216HW,2013-08-26 22:45:00,
2013-08-26 17:50:00,94.9,74.0,29.98,North,0,0.0,0.0,51,0.00,,,0.00,WUHU216HW,2013-08-26 22:50:00,
2013-08-26 17:55:00,94.7,74.3,29.98,North,0,0.0,0.0,52,0.00,,,0.00,WUHU216HW,2013-08-26 22:55:00,
2013-08-26 18:00:00,94.1,74.3,29.98,North,0,0.0,0.0,53,0.00,,,0.00,WUHU216HW,2013-08-26 23:00:00,
2013-08-26 18:05:00,92.7,73.5,29.98,North,0,0.0,0.0,54,0.00,,,0.00,WUHU216HW,2013-08-26 23:05:00,
2013-08-26 18:10:00,91.4,73.4,29.98,North,0,0.0,0.0,56,0.00,,,0.00,WUHU216HW,2013-08-26 23:10:00,
2013-08-26 18:15:00,90.5,73.2,29.98,North,0,0.0,0.0,57,0.00,,,0.00,WUHU216HW,2013-08-26 23:15:00,
2013-08-26 18:20:00,90.2,73.4,29.98,North,0,0.0,0.0,58,0.00,,,0.00,WUHU216HW,2013-08-26 23:20:00,
2013-08-26 18:25:00,89.6,73.4,29.98,North,0,0.0,0.0,59,0.00,,,0.00,WUHU216HW,2013-08-26 23:25:00,
2013-08-26 18:30:00,89.1,73.5,29.97,North,0,0.0,0.0,60,0.00,,,0.00,WUHU216HW,2013-08-26 23:30:00,
2013-08-26 18:35:00,88.7,73.2,29.97,North,0,0.0,0.0,60,0.00,,,0.00,WUHU216HW,2013-08-26 23:35:00,
2013-08-26 18:40:00,88.6,73.4,29.97,North,0,0.0,0.0,61,0.00,,,0.00,WUHU216HW,2013-08-26 23:40:00,
2013-08-26 18:45:00,88.2,73.6,29.97,North,0,0.0,0.0,62,0.00,,,0.00,WUHU216HW,2013-08-26 23:45:00,
2013-08-26 18:50:00,87.8,73.3,29.97,North,0,0.0,0.0,62,0.00,,,0.00,WUHU216HW,2013-08-26 23:50:00,
2013-08-26 18:55:00,87.7,73.5,29.97,North,0,0.0,0.0,63,0.00,,,0.00,WUHU216HW,2013-08-26 23:55:00,
2013-08-26 19:00:00,87.3,73.2,29.97,North,0,0.0,0.0,63,0.00,,,0.00,WUHU216HW,2013-08-27 00:00:00,
2013-08-26 19:05:00,87.1,73.4,29.97,North,0,0.0,0.0,64,0.00,,,0.00,WUHU216HW,2013-08-27 00:05:00,
2013-08-26 19:10:00,86.9,73.3,29.96,North,0,0.0,0.0,64,0.00,,,0.00,WUHU216HW,2013-08-27 00:10:00,
2013-08-26 19:15:00,86.6,73.0,29.96,North,0,0.0,0.0,64,0.00,,,0.00,WUHU216HW,2013-08-27 00:15:00,
2013-08-26 19:19:00,86.2,73.5,29.96,North,0,0.0,0.0,66,0.00,,,0.00,WUHU216HW,2013-08-27 00:19:00,
2013-08-26 19:24:00,85.9,73.2,29.96,North,0,0.0,0.0,66,0.00,,,0.00,WUHU216HW,2013-08-27 00:24:00,
2013-08-26 19:29:00,85.7,73.0,29.96,North,0,0.0,0.0,66,0.00,,,0.00,WUHU216HW,2013-08-27 00:29:00,
2013-08-26 19:34:00,85.5,72.8,29.96,North,0,0.0,0.0,66,0.00,,,0.00,WUHU216HW,2013-08-27 00:34:00,
2013-08-26 19:39:00,85.1,73.0,29.96,North,0,0.0,0.0,67,0.00,,,0.00,WUHU216HW,2013-08-27 00:39:00,
2013-08-26 19:44:00,84.6,72.5,29.96,North,0,0.0,0.0,67,0.00,,,0.00,WUHU216HW,2013-08-27 00:44:00,
2013-08-26 19:49:00,84.2,72.5,29.96,North,0,0.0,0.0,68,0.00,,,0.00,WUHU216HW,2013-08-27 00:49:00,
2013-08-26 19:54:00,83.9,72.6,29.97,North,0,0.0,0.0,69,0.00,,,0.00,WUHU216HW,2013-08-27 00:54:00,
2013-08-26 19:59:00,83.9,72.6,29.97,North,0,0.0,0.0,69,0.00,,,0.00,WUHU216HW,2013-08-27 00:59:00,
2013-08-26 20:04:00,83.5,72.3,29.97,North,0,0.0,0.0,69,0.00,,,0.00,WUHU216HW,2013-08-27 01:04:00,
2013-08-26 20:09:00,83.2,71.9,29.97,North,0,0.0,0.0,69,0.00,,,0.00,WUHU216HW,2013-08-27 01:09:00,
2013-08-26 20:14:00,83.0,73.0,29.97,North,0,0.0,0.0,72,0.00,,,0.00,WUHU216HW,2013-08-27 01:14:00,
2013-08-26 20:19:00,82.8,72.0,29.97,North,0,0.0,0.0,70,0.00,,,0.00,WUHU216HW,2013-08-27 01:19:00,
2013-08-26 20:24:00,82.4,72.5,29.98,North,0,0.0,0.0,72,0.00,,,0.00,WUHU216HW,2013-08-27 01:24:00,
2013-08-26 20:29:00,82.4,72.5,29.97,North,0,0.0,0.0,72,0.00,,,0.00,WUHU216HW,2013-08-27 01:29:00,
2013-08-26 20:34:00,82.3,72.3,29.97,North,0,0.0,0.0,72,0.00,,,0.00,WUHU216HW,2013-08-27 01:34:00,
2013-08-26 20:39:00,82.1,72.2,29.97,North,0,0.0,0.0,72,0.00,,,0.00,WUHU216HW,2013-08-27 01:39:00,
2013-08-26 20:44:00,82.1,72.2,29.97,North,0,0.0,0.0,72,0.00,,,0.00,WUHU216HW,2013-08-27 01:44:00,
2013-08-26 20:49:00,81.9,72.0,29.97,North,0,0.0,0.0,72,0.00,,,0.00,WUHU216HW,2013-08-27 01:49:00,
2013-08-26 20:54:00,81.7,71.8,29.97,North,0,0.0,0.0,72,0.00,,,0.00,WUHU216HW,2013-08-27 01:54:00,
2013-08-26 20:59:00,81.5,71.6,29.97,North,0,0.0,0.0,72,0.00,,,0.00,WUHU216HW,2013-08-27 01:59:00,
2013-08-26 21:04:00,81.2,71.3,29.97,North,0,0.0,0.0,72,0.00,,,0.00,WUHU216HW,2013-08-27 02:04:00,
2013-08-26 21:09:00,80.6,70.8,29.97,North,0,0.0,0.0,72,0.00,,,0.00,WUHU216HW,2013-08-27 02:09:00,
2013-08-26 21:14:00,80.3,71.3,29.97,North,0,0.0,0.0,74,0.00,,,0.00,WUHU216HW,2013-08-27 02:14:00,
2013-08-26 21:19:00,80.1,71.1,29.97,North,0,0.0,0.0,74,0.00,,,0.00,WUHU216HW,2013-08-27 02:19:00,
2013-08-26 21:24:00,79.9,70.9,29.97,North,0,0.0,0.0,74,0.00,,,0.00,WUHU216HW,2013-08-27 02:24:00,
2013-08-26 21:29:00,79.7,70.8,29.97,North,0,0.0,0.0,74,0.00,,,0.00,WUHU216HW,2013-08-27 02:29:00,
2013-08-26 21:34:00,79.6,70.9,29.97,North,0,0.0,0.0,75,0.00,,,0.00,WUHU216HW,2013-08-27 02:34:00,
2013-08-26 21:39:00,79.6,70.9,29.98,North,0,0.0,0.0,75,0.00,,,0.00,WUHU216HW,2013-08-27 02:39:00,
2013-08-26 21:44:00,79.6,70.9,29.97,North,0,0.0,0.0,75,0.00,,,0.00,WUHU216HW,2013-08-27 02:44:00,
2013-08-26 21:49:00,79.7,71.1,29.98,North,0,0.0,0.0,75,0.00,,,0.00,WUHU216HW,2013-08-27 02:49:00,
2013-08-26 21:54:00,79.9,71.3,29.98,North,0,0.0,0.0,75,0.00,,,0.00,WUHU216HW,2013-08-27 02:54:00,
2013-08-26 21:59:00,79.9,71.3,29.98,North,0,0.0,0.0,75,0.00,,,0.00,WUHU216HW,2013-08-27 02:59:00,
2013-08-26 22:04:00,79.9,70.9,29.98,North,0,0.0,0.0,74,0.00,,,0.00,WUHU216HW,2013-08-27 03:04:00,
2013-08-26 22:09:00,79.9,71.3,29.98,North,0,0.0,0.0,75,0.00,,,0.00,WUHU216HW,2013-08-27 03:09:00,
2013-08-26 22:14:00,79.7,71.1,29.97,North,0,0.0,0.0,75,0.00,,,0.00,WUHU216HW,2013-08-27 03:14:00,
2013-08-26 22:19:00,79.7,71.1,29.98,North,0,0.0,0.0,75,0.00,,,0.00,WUHU216HW,2013-08-27 03:19:00,
2013-08-26 22:24:00,79.7,71.1,29.98,North,0,0.0,0.0,75,0.00,,,0.00,WUHU216HW,2013-08-27 03:24:00,
2013-08-26 22:29:00,79.6,70.9,29.97,North,0,0.0,0.0,75,0.00,,,0.00,WUHU216HW,2013-08-27 03:29:00,
2013-08-26 22:34:00,79.4,70.7,29.97,North,0,0.0,0.0,75,0.00,,,0.00,WUHU216HW,2013-08-27 03:34:00,
2013-08-26 22:39:00,79.2,70.6,29.98,North,0,0.0,0.0,75,0.00,,,0.00,WUHU216HW,2013-08-27 03:39:00,
2013-08-26 22:44:00,79.0,70.7,29.97,North,0,0.0,0.0,76,0.00,,,0.00,WUHU216HW,2013-08-27 03:44:00,
2013-08-26 22:49:00,78.8,71.0,29.97,North,0,0.0,0.0,77,0.00,,,0.00,WUHU216HW,2013-08-27 03:49:00,
2013-08-26 22:54:00,78.8,70.6,29.97,North,0,0.0,0.0,76,0.00,,,0.00,WUHU216HW,2013-08-27 03:54:00,
2013-08-26 22:59:00,78.8,70.6,29.97,North,0,0.0,0.0,76,0.00,,,0.00,WUHU216HW,2013-08-27 03:59:00,
2013-08-26 23:01:00,78.8,70.6,29.97,North,0,0.0,0.0,76,0.00,,,0.00,WUHU216HW,2013-08-27 04:01:00,
2013-08-26 23:06:00,78.8,70.6,29.97,North,0,0.0,0.0,76,0.00,,,0.00,WUHU216HW,2013-08-27 04:06:00,
2013-08-26 23:11:00,78.8,70.6,29.97,North,0,0.0,0.0,76,0.00,,,0.00,WUHU216HW,2013-08-27 04:11:00,
2013-08-26 23:16:00,78.7,70.4,29.98,North,0,0.0,0.0,76,0.00,,,0.00,WUHU216HW,2013-08-27 04:16:00,
2013-08-26 23:21:00,78.5,70.3,29.98,North,0,0.0,0.0,76,0.00,,,0.00,WUHU216HW,2013-08-27 04:21:00,
2013-08-26 23:26:00,78.1,69.9,29.98,North,0,0.0,0.0,76,0.00,,,0.00,WUHU216HW,2013-08-27 04:26:00,
2013-08-26 23:31:00,77.9,69.8,29.97,North,0,0.0,0.0,76,0.00,,,0.00,WUHU216HW,2013-08-27 04:31:00,
2013-08-26 23:36:00,77.6,70.1,29.97,North,0,0.0,0.0,78,0.00,,,0.00,WUHU216HW,2013-08-27 04:36:00,
2013-08-26 23:41:00,77.4,69.6,29.97,North,0,0.0,0.0,77,0.00,,,0.00,WUHU216HW,2013-08-27 04:41:00,
2013-08-26 23:46:00,77.2,69.9,29.97,North,0,0.0,0.0,78,0.00,,,0.00,WUHU216HW,2013-08-27 04:46:00,
2013-08-26 23:51:00,77.2,69.9,29.97,North,0,0.0,0.0,78,0.00,,,0.00,WUHU216HW,2013-08-27 04:51:00,
2013-08-26 23:56:00,77.2,69.9,29.97,North,0,0.0,0.0,78,0.00,,,0.00,WUHU216HW,2013-08-27 04:56:00,